| time (UTC) | temp C | wind direction | speed KPH | gust KPH | rain 1hr cm | rain 24hr cm | rain mn cm | humidity % | barometer mb |
| 20260509032048 | 15 | 0 | 0.0 | 0.0 | 0.00 | 0.00 | 0.00 | 64 | 1015.1 |
| 20260509031550 | 15 | 0 | 0.0 | 3.2 | 0.00 | 0.00 | 0.00 | 66 | 1015.2 |
| 20260509031045 | 15 | 0 | 0.0 | 3.2 | 0.00 | 0.00 | 0.00 | 65 | 1015.1 |
| 20260509030545 | 15 | 0 | 0.0 | 3.2 | 0.00 | 0.00 | 0.00 | 65 | 1015.2 |
| 20260509030054 | 15 | 0 | 0.0 | 4.8 | 0.00 | 0.00 | 0.00 | 59 | 1015.3 |
| 20260509025545 | 15 | 241 | 0.0 | 4.8 | 0.00 | 0.00 | 0.00 | 64 | 1015.4 |
| 20260509025045 | 15 | 241 | 0.0 | 4.8 | 0.00 | 0.00 | 0.00 | 62 | 1015.5 |
| 20260509024550 | 15 | 0 | 0.0 | 3.2 | 0.00 | 0.00 | 0.00 | 68 | 1015.4 |
| 20260509024048 | 15 | 0 | 0.0 | 3.2 | 0.00 | 0.00 | 0.00 | 63 | 1015.5 |
| 20260509023546 | 15 | 0 | 0.0 | 3.2 | 0.00 | 0.00 | 0.00 | 66 | 1015.4 |
| 20260509023102 | 15 | 0 | 0.0 | 3.2 | 0.00 | 0.00 | 0.00 | 68 | 1015.5 |
| 20260509022546 | 15 | 0 | 0.0 | 1.6 | 0.00 | 0.00 | 0.00 | 71 | 1015.5 |
| 20260509022045 | 15 | 0 | 0.0 | 0.0 | 0.00 | 0.00 | 0.00 | 69 | 1015.6 |
| 20260509021554 | 15 | 0 | 0.0 | 0.0 | 0.00 | 0.00 | 0.00 | 68 | 1015.7 |
| 20260509021045 | 14 | 0 | 0.0 | 0.0 | 0.00 | 0.00 | 0.00 | 68 | 1015.6 |
| 20260509020545 | 14 | 0 | 0.0 | 1.6 | 0.00 | 0.00 | 0.00 | 71 | 1015.6 |
| 20260509020049 | 13 | 0 | 0.0 | 1.6 | 0.00 | 0.00 | 0.00 | 73 | 1015.6 |
| 20260509015545 | 13 | 0 | 0.0 | 0.0 | 0.00 | 0.00 | 0.00 | 73 | 1015.7 |
| 20260509015050 | 13 | 0 | 0.0 | 0.0 | 0.00 | 0.00 | 0.00 | 74 | 1015.7 |
| 20260509014550 | 13 | 0 | 0.0 | 0.0 | 0.00 | 0.00 | 0.00 | 70 | 1015.6 |
| 20260509014044 | 13 | 0 | 0.0 | 0.0 | 0.00 | 0.00 | 0.00 | 69 | 1015.6 |
| 20260509013548 | 13 | 0 | 0.0 | 0.0 | 0.00 | 0.00 | 0.00 | 71 | 1015.6 |
| 20260509013058 | 13 | 0 | 0.0 | 0.0 | 0.00 | 0.00 | 0.00 | 70 | 1015.6 |
| 20260509012545 | 14 | 0 | 0.0 | 0.0 | 0.00 | 0.00 | 0.00 | 71 | 1015.5 |
| 20260509012045 | 14 | 0 | 0.0 | 0.0 | 0.00 | 0.00 | 0.00 | 69 | 1015.4 |
| 20260509011554 | 14 | 0 | 0.0 | 0.0 | 0.00 | 0.00 | 0.00 | 67 | 1015.3 |
| 20260509011045 | 14 | 0 | 0.0 | 0.0 | 0.00 | 0.00 | 0.00 | 66 | 1015.3 |
| 20260509010548 | 14 | 0 | 0.0 | 0.0 | 0.00 | 0.00 | 0.00 | 64 | 1015.3 |
| 20260509010052 | 14 | 0 | 0.0 | 0.0 | 0.00 | 0.00 | 0.00 | 66 | 1015.3 |
| 20260509005550 | 14 | 0 | 0.0 | 0.0 | 0.00 | 0.00 | 0.00 | 66 | 1015.3 |
| 20260509005047 | 14 | 0 | 0.0 | 0.0 | 0.00 | 0.00 | 0.00 | 66 | 1015.4 |
| 20260509004553 | 14 | 0 | 0.0 | 0.0 | 0.00 | 0.00 | 0.00 | 64 | 1015.3 |
| 20260509004048 | 14 | 0 | 0.0 | 0.0 | 0.00 | 0.00 | 0.00 | 64 | 1015.3 |
| 20260509003546 | 15 | 0 | 0.0 | 0.0 | 0.00 | 0.00 | 0.00 | 63 | 1015.1 |
| 20260509003100 | 15 | 0 | 0.0 | 0.0 | 0.00 | 0.00 | 0.00 | 63 | 1015.2 |
| 20260509002545 | 15 | 0 | 0.0 | 0.0 | 0.00 | 0.00 | 0.00 | 63 | 1015.0 |
| 20260509002045 | 15 | 0 | 0.0 | 0.0 | 0.00 | 0.00 | 0.00 | 62 | 1015.0 |
| 20260509001549 | 15 | 0 | 0.0 | 0.0 | 0.00 | 0.00 | 0.00 | 63 | 1014.9 |
| 20260509001045 | 15 | 0 | 0.0 | 0.0 | 0.00 | 0.00 | 0.00 | 65 | 1014.9 |
| 20260509000545 | 15 | 0 | 0.0 | 0.0 | 0.00 | 0.00 | 0.00 | 61 | 1014.8 |
| 20260509000059 | 15 | 0 | 0.0 | 0.0 | 0.00 | 0.00 | 0.00 | 60 | 1014.7 |
| 20260508235545 | 15 | 0 | 0.0 | 0.0 | 0.00 | 0.00 | 0.00 | 60 | 1014.7 |
| 20260508235048 | 15 | 0 | 0.0 | 0.0 | 0.00 | 0.00 | 0.00 | 64 | 1014.7 |
| 20260508234558 | 15 | 0 | 0.0 | 0.0 | 0.00 | 0.00 | 0.00 | 63 | 1014.7 |
| 20260508234045 | 15 | 0 | 0.0 | 0.0 | 0.00 | 0.00 | 0.00 | 61 | 1014.8 |
| 20260508233545 | 16 | 0 | 0.0 | 0.0 | 0.00 | 0.00 | 0.00 | 67 | 1014.7 |
| 20260508233056 | 16 | 0 | 0.0 | 0.0 | 0.00 | 0.00 | 0.00 | 67 | 1014.9 |
| 20260508232544 | 16 | 0 | 0.0 | 0.0 | 0.00 | 0.00 | 0.00 | 64 | 1015.0 |
| 20260508232045 | 16 | 0 | 0.0 | 0.0 | 0.00 | 0.00 | 0.00 | 68 | 1015.1 |
| 20260508231554 | 16 | 0 | 0.0 | 0.0 | 0.00 | 0.00 | 0.00 | 68 | 1015.0 |
| 20260508231048 | 16 | 0 | 0.0 | 0.0 | 0.00 | 0.00 | 0.00 | 62 | 1015.0 |
| 20260508230548 | 16 | 0 | 0.0 | 0.0 | 0.00 | 0.00 | 0.00 | 62 | 1015.1 |
| 20260508230059 | 17 | 0 | 0.0 | 0.0 | 0.00 | 0.00 | 0.00 | 54 | 1015.1 |
| 20260508225545 | 17 | 0 | 0.0 | 0.0 | 0.00 | 0.03 | 0.00 | 55 | 1014.9 |
| 20260508225046 | 17 | 0 | 0.0 | 0.0 | 0.00 | 0.03 | 0.00 | 58 | 1014.9 |
| 20260508224551 | 17 | 0 | 0.0 | 0.0 | 0.00 | 0.03 | 0.00 | 57 | 1014.9 |
| 20260508224048 | 17 | 0 | 0.0 | 0.0 | 0.00 | 0.03 | 0.00 | 62 | 1015.0 |
| 20260508223545 | 17 | 0 | 0.0 | 4.8 | 0.00 | 0.03 | 0.00 | 60 | 1015.1 |
| 20260508223055 | 17 | 0 | 0.0 | 4.8 | 0.00 | 0.03 | 0.00 | 60 | 1015.0 |
| 20260508222549 | 17 | 0 | 0.0 | 0.0 | 0.00 | 0.03 | 0.00 | 60 | 1015.1 |
| 20260508222048 | 17 | 0 | 0.0 | 0.0 | 0.00 | 0.03 | 0.00 | 61 | 1014.9 |
| 20260508221554 | 18 | 0 | 0.0 | 0.0 | 0.00 | 0.03 | 0.00 | 60 | 1014.9 |
| 20260508221045 | 18 | 0 | 0.0 | 0.0 | 0.00 | 0.03 | 0.00 | 58 | 1014.8 |
| 20260508220544 | 18 | 0 | 0.0 | 0.0 | 0.00 | 0.03 | 0.00 | 57 | 1014.7 |
| 20260508220051 | 18 | 0 | 0.0 | 0.0 | 0.00 | 0.03 | 0.00 | 58 | 1014.8 |
| 20260508215544 | 18 | 0 | 0.0 | 0.0 | 0.00 | 0.15 | 0.00 | 58 | 1014.6 |
| 20260508215049 | 18 | 0 | 0.0 | 0.0 | 0.00 | 0.15 | 0.00 | 58 | 1014.7 |
| 20260508214601 | 18 | 0 | 0.0 | 0.0 | 0.00 | 0.15 | 0.00 | 59 | 1014.7 |
| 20260508214046 | 18 | 0 | 0.0 | 0.0 | 0.00 | 0.15 | 0.00 | 60 | 1014.7 |
| 20260508213545 | 18 | 0 | 0.0 | 0.0 | 0.00 | 0.15 | 0.00 | 55 | 1014.9 |
| 20260508213051 | 18 | 0 | 0.0 | 0.0 | 0.00 | 0.15 | 0.00 | 54 | 1014.8 |
| 20260508212544 | 18 | 0 | 0.0 | 0.0 | 0.00 | 0.15 | 0.00 | 56 | 1014.7 |
| 20260508212045 | 18 | 0 | 0.0 | 0.0 | 0.00 | 0.15 | 0.00 | 53 | 1014.7 |
| 20260508211551 | 19 | 0 | 0.0 | 0.0 | 0.00 | 0.15 | 0.00 | 51 | 1014.6 |
| 20260508211047 | 19 | 0 | 0.0 | 0.0 | 0.00 | 0.15 | 0.00 | 53 | 1014.7 |
| 20260508210548 | 19 | 0 | 0.0 | 0.0 | 0.00 | 0.15 | 0.00 | 49 | 1014.6 |
| 20260508210051 | 19 | 0 | 0.0 | 0.0 | 0.00 | 0.15 | 0.00 | 52 | 1014.7 |
| 20260508205547 | 19 | 0 | 0.0 | 1.6 | 0.00 | 0.18 | 0.00 | 51 | 1014.8 |
| 20260508205045 | 19 | 0 | 0.0 | 1.6 | 0.00 | 0.18 | 0.00 | 53 | 1014.8 |
| 20260508204552 | 19 | 0 | 0.0 | 0.0 | 0.00 | 0.18 | 0.00 | 47 | 1014.9 |
| 20260508204045 | 20 | 0 | 0.0 | 0.0 | 0.00 | 0.18 | 0.00 | 50 | 1015.0 |
| 20260508203545 | 20 | 0 | 0.0 | 0.0 | 0.00 | 0.18 | 0.00 | 46 | 1014.9 |
| 20260508203052 | 20 | 0 | 0.0 | 1.6 | 0.00 | 0.18 | 0.00 | 45 | 1015.0 |
| 20260508202546 | 20 | 0 | 0.0 | 6.4 | 0.00 | 0.18 | 0.00 | 45 | 1015.0 |
| 20260508202049 | 20 | 0 | 0.0 | 6.4 | 0.00 | 0.18 | 0.00 | 47 | 1015.2 |
| 20260508201557 | 21 | 156 | 0.0 | 6.4 | 0.00 | 0.18 | 0.00 | 42 | 1015.4 |
| 20260508201048 | 21 | 0 | 0.0 | 1.6 | 0.00 | 0.18 | 0.00 | 45 | 1015.4 |
| 20260508200545 | 21 | 0 | 0.0 | 1.6 | 0.00 | 0.18 | 0.00 | 47 | 1015.3 |
| 20260508200053 | 21 | 0 | 0.0 | 1.6 | 0.00 | 0.18 | 0.00 | 45 | 1015.3 |
| 20260508195545 | 21 | 0 | 0.0 | 1.6 | 0.00 | 0.18 | 0.00 | 40 | 1015.4 |
| 20260508195045 | 20 | 0 | 0.0 | 1.6 | 0.00 | 0.18 | 0.00 | 42 | 1015.4 |
| 20260508194623 | 21 | 0 | 0.0 | 1.6 | 0.00 | 0.18 | 0.00 | 42 | 1015.5 |
| 20260508194049 | 21 | 0 | 0.0 | 0.0 | 0.00 | 0.18 | 0.00 | 46 | 1015.5 |
| 20260508193551 | 21 | 0 | 0.0 | 1.6 | 0.00 | 0.18 | 0.00 | 39 | 1015.3 |
| 20260508193106 | 21 | 0 | 0.0 | 1.6 | 0.00 | 0.18 | 0.00 | 48 | 1015.5 |
| 20260508192551 | 21 | 0 | 0.0 | 0.0 | 0.00 | 0.18 | 0.00 | 43 | 1015.6 |
| 20260508192046 | 21 | 0 | 0.0 | 3.2 | 0.00 | 0.18 | 0.00 | 40 | 1015.9 |
| 20260508191559 | 21 | 0 | 0.0 | 3.2 | 0.00 | 0.18 | 0.00 | 41 | 1016.1 |
| 20260508191053 | 21 | 0 | 0.0 | 6.4 | 0.00 | 0.18 | 0.00 | 43 | 1016.1 |
| 20260508190553 | 21 | 0 | 1.6 | 6.4 | 0.00 | 0.18 | 0.00 | 38 | 1016.1 |
| 20260508190051 | 21 | 327 | 0.0 | 4.8 | 0.00 | 0.18 | 0.00 | 43 | 1016.0 |
| 20260508185549 | 21 | 0 | 0.0 | 4.8 | 0.00 | 0.18 | 0.00 | 40 | 1015.9 |
| 20260508185049 | 20 | 0 | 0.0 | 8.0 | 0.00 | 0.18 | 0.00 | 45 | 1016.1 |
| 20260508184554 | 21 | 227 | 1.6 | 8.0 | 0.00 | 0.18 | 0.00 | 41 | 1016.2 |
| 20260508184050 | 21 | 0 | 0.0 | 6.4 | 0.00 | 0.18 | 0.00 | 38 | 1016.2 |
| 20260508183549 | 21 | 261 | 0.0 | 8.0 | 0.00 | 0.18 | 0.00 | 43 | 1016.3 |
| 20260508183055 | 21 | 272 | 1.6 | 8.0 | 0.00 | 0.18 | 0.00 | 44 | 1016.4 |
| 20260508182552 | 21 | 234 | 0.0 | 4.8 | 0.00 | 0.18 | 0.00 | 44 | 1016.4 |
| 20260508182050 | 21 | 250 | 1.6 | 8.0 | 0.00 | 0.18 | 0.00 | 42 | 1016.4 |
| 20260508181621 | 20 | 0 | 1.6 | 8.0 | 0.00 | 0.18 | 0.00 | 40 | 1016.4 |
| 20260508181050 | 21 | 40 | 0.0 | 8.0 | 0.00 | 0.18 | 0.00 | 42 | 1016.5 |
| 20260508180552 | 21 | 42 | 3.2 | 8.0 | 0.00 | 0.18 | 0.00 | 40 | 1016.6 |
| 20260508175550 | 20 | 242 | 0.0 | 6.4 | 0.00 | 0.23 | 0.00 | 40 | 1016.6 |
| 20260508175050 | 20 | 0 | 0.0 | 6.4 | 0.00 | 0.23 | 0.00 | 44 | 1016.7 |
| 20260508174551 | 20 | 0 | 0.0 | 6.4 | 0.00 | 0.23 | 0.00 | 50 | 1016.7 |
| 20260508174049 | 20 | 168 | 1.6 | 4.8 | 0.00 | 0.23 | 0.00 | 39 | 1016.8 |
| 20260508173550 | 20 | 225 | 1.6 | 6.4 | 0.00 | 0.23 | 0.00 | 47 | 1016.9 |
| 20260508173051 | 20 | 0 | 0.0 | 6.4 | 0.00 | 0.23 | 0.00 | 50 | 1017.1 |
| 20260508172549 | 19 | 347 | 1.6 | 8.0 | 0.00 | 0.23 | 0.00 | 48 | 1017.1 |
| 20260508172049 | 19 | 316 | 1.6 | 8.0 | 0.00 | 0.23 | 0.00 | 46 | 1017.2 |
| 20260508171550 | 20 | 13 | 3.2 | 8.0 | 0.00 | 0.23 | 0.00 | 45 | 1017.1 |
| 20260508171050 | 20 | 11 | 1.6 | 4.8 | 0.00 | 0.23 | 0.00 | 47 | 1017.2 |
| 20260508170550 | 20 | 255 | 0.0 | 6.4 | 0.00 | 0.23 | 0.00 | 50 | 1017.2 |
| 20260508170052 | 20 | 0 | 0.0 | 6.4 | 0.00 | 0.23 | 0.00 | 45 | 1017.3 |
| 20260508165548 | 19 | 0 | 0.0 | 6.4 | 0.00 | 0.41 | 0.00 | 45 | 1017.3 |
| 20260508165050 | 20 | 272 | 1.6 | 6.4 | 0.00 | 0.41 | 0.00 | 50 | 1017.4 |
| 20260508164551 | 19 | 303 | 0.0 | 6.4 | 0.00 | 0.41 | 0.00 | 51 | 1017.5 |
| 20260508164050 | 19 | 0 | 1.6 | 6.4 | 0.00 | 0.41 | 0.00 | 57 | 1017.7 |
| 20260508163549 | 18 | 0 | 0.0 | 6.4 | 0.00 | 0.41 | 0.00 | 54 | 1017.8 |
| 20260508163105 | 18 | 250 | 0.0 | 6.4 | 0.00 | 0.41 | 0.00 | 50 | 1018.1 |
| 20260508162549 | 18 | 0 | 0.0 | 8.0 | 0.00 | 0.41 | 0.00 | 50 | 1018.2 |
| 20260508162051 | 18 | 0 | 1.6 | 8.0 | 0.00 | 0.41 | 0.00 | 52 | 1018.3 |
| 20260508161608 | 19 | 0 | 0.0 | 6.4 | 0.00 | 0.41 | 0.00 | 59 | 1018.2 |
| 20260508161049 | 18 | 360 | 0.0 | 9.7 | 0.00 | 0.41 | 0.00 | 49 | 1018.3 |
| 20260508160551 | 18 | 44 | 1.6 | 9.7 | 0.00 | 0.41 | 0.00 | 54 | 1018.4 |
| 20260508160057 | 18 | 32 | 1.6 | 9.7 | 0.00 | 0.41 | 0.00 | 54 | 1018.3 |
| 20260508155549 | 18 | 352 | 1.6 | 6.4 | 0.00 | 0.46 | 0.00 | 55 | 1018.5 |
| 20260508155049 | 17 | 226 | 1.6 | 11.3 | 0.00 | 0.46 | 0.00 | 50 | 1018.5 |
| 20260508154558 | 17 | 15 | 1.6 | 11.3 | 0.00 | 0.46 | 0.00 | 53 | 1018.6 |
| 20260508154049 | 17 | 28 | 1.6 | 6.4 | 0.00 | 0.46 | 0.00 | 57 | 1018.6 |
| 20260508153550 | 17 | 57 | 0.0 | 9.7 | 0.00 | 0.46 | 0.00 | 49 | 1018.6 |
| 20260508153057 | 17 | 56 | 1.6 | 9.7 | 0.00 | 0.46 | 0.00 | 62 | 1018.6 |
| 20260508152548 | 17 | 59 | 3.2 | 12.9 | 0.00 | 0.46 | 0.00 | 60 | 1018.7 |
| 20260508152045 | 17 | 317 | 1.6 | 12.9 | 0.00 | 0.46 | 0.00 | 64 | 1018.6 |
| 20260508151607 | 16 | 0 | 3.2 | 8.0 | 0.00 | 0.46 | 0.00 | 61 | 1018.7 |
| 20260508151049 | 16 | 56 | 0.0 | 9.7 | 0.00 | 0.46 | 0.00 | 57 | 1018.7 |
| 20260508150549 | 16 | 0 | 1.6 | 9.7 | 0.00 | 0.46 | 0.00 | 62 | 1018.8 |
| 20260508150057 | 15 | 82 | 3.2 | 8.0 | 0.00 | 0.46 | 0.00 | 59 | 1018.8 |
| 20260508145548 | 16 | 35 | 1.6 | 8.0 | 0.00 | 0.53 | 0.00 | 61 | 1018.7 |
| 20260508145049 | 15 | 317 | 3.2 | 8.0 | 0.00 | 0.53 | 0.00 | 55 | 1018.7 |
| 20260508144559 | 15 | 302 | 0.0 | 6.4 | 0.00 | 0.53 | 0.00 | 68 | 1018.7 |
| 20260508144049 | 15 | 246 | 1.6 | 6.4 | 0.00 | 0.53 | 0.00 | 72 | 1018.7 |
| 20260508143550 | 14 | 283 | 0.0 | 6.4 | 0.00 | 0.53 | 0.00 | 70 | 1018.7 |
| 20260508143056 | 14 | 0 | 1.6 | 14.5 | 0.00 | 0.53 | 0.00 | 68 | 1018.6 |
| 20260508142548 | 13 | 349 | 1.6 | 14.5 | 0.00 | 0.53 | 0.00 | 75 | 1018.5 |
| 20260508142049 | 13 | 0 | 1.6 | 8.0 | 0.00 | 0.53 | 0.00 | 80 | 1018.4 |
| 20260508141601 | 13 | 45 | 0.0 | 8.0 | 0.00 | 0.53 | 0.00 | 79 | 1018.5 |
| 20260508141045 | 13 | 35 | 0.0 | 8.0 | 0.00 | 0.53 | 0.00 | 73 | 1018.4 |
| 20260508140546 | 12 | 0 | 1.6 | 8.0 | 0.00 | 0.53 | 0.00 | 82 | 1018.5 |
| 20260508140054 | 11 | 0 | 1.6 | 8.0 | 0.00 | 0.53 | 0.00 | 86 | 1018.6 |
| 20260508135550 | 10 | 37 | 0.0 | 8.0 | 0.00 | 0.69 | 0.00 | 95 | 1018.6 |
| 20260508135049 | 10 | 38 | 0.0 | 8.0 | 0.00 | 0.69 | 0.00 | 95 | 1018.4 |
| 20260508134557 | 10 | 14 | 0.0 | 4.8 | 0.00 | 0.69 | 0.00 | 96 | 1018.5 |
| 20260508134049 | 10 | 0 | 0.0 | 4.8 | 0.00 | 0.69 | 0.00 | 96 | 1018.4 |
| 20260508133550 | 10 | 348 | 1.6 | 4.8 | 0.00 | 0.69 | 0.00 | 96 | 1018.4 |
| 20260508133104 | 10 | 304 | 1.6 | 4.8 | 0.00 | 0.69 | 0.00 | 96 | 1018.4 |
| 20260508132549 | 10 | 20 | 0.0 | 9.7 | 0.00 | 0.69 | 0.00 | 96 | 1018.2 |
| 20260508132049 | 9 | 0 | 0.0 | 9.7 | 0.00 | 0.69 | 0.00 | 96 | 1018.3 |
| 20260508131553 | 9 | 55 | 1.6 | 9.7 | 0.00 | 0.69 | 0.00 | 96 | 1018.2 |
| 20260508131049 | 9 | 65 | 1.6 | 9.7 | 0.00 | 0.69 | 0.00 | 96 | 1018.2 |
| 20260508130550 | 9 | 0 | 0.0 | 4.8 | 0.00 | 0.69 | 0.00 | 96 | 1018.1 |
| 20260508130051 | 9 | 0 | 0.0 | 6.4 | 0.00 | 0.69 | 0.00 | 96 | 1018.0 |
| 20260508125549 | 8 | 64 | 1.6 | 6.4 | 0.00 | 0.76 | 0.00 | 96 | 1018.1 |
| 20260508125046 | 8 | 52 | 0.0 | 3.2 | 0.00 | 0.76 | 0.00 | 96 | 1018.1 |
| 20260508124554 | 8 | 0 | 0.0 | 3.2 | 0.00 | 0.76 | 0.00 | 96 | 1018.0 |
| 20260508124048 | 8 | 0 | 0.0 | 0.0 | 0.00 | 0.76 | 0.00 | 96 | 1018.1 |
| 20260508123549 | 8 | 0 | 0.0 | 0.0 | 0.00 | 0.76 | 0.00 | 95 | 1018.1 |
| 20260508123057 | 8 | 0 | 0.0 | 0.0 | 0.00 | 0.76 | 0.00 | 95 | 1018.1 |
| 20260508122549 | 8 | 0 | 0.0 | 0.0 | 0.00 | 0.76 | 0.00 | 95 | 1018.1 |
| 20260508122049 | 8 | 0 | 0.0 | 0.0 | 0.00 | 0.76 | 0.00 | 95 | 1018.0 |
| 20260508121555 | 8 | 0 | 0.0 | 3.2 | 0.00 | 0.76 | 0.00 | 95 | 1018.0 |
| 20260508121049 | 8 | 0 | 0.0 | 3.2 | 0.00 | 0.76 | 0.00 | 95 | 1017.8 |
| 20260508120550 | 8 | 0 | 0.0 | 4.8 | 0.00 | 0.76 | 0.00 | 95 | 1017.7 |
| 20260508120058 | 8 | 41 | 1.6 | 4.8 | 0.00 | 0.76 | 0.00 | 95 | 1017.6 |
| 20260508115549 | 8 | 37 | 1.6 | 4.8 | 0.00 | 0.81 | 0.00 | 95 | 1017.4 |
| 20260508115048 | 8 | 101 | 0.0 | 3.2 | 0.00 | 0.81 | 0.00 | 95 | 1017.4 |
| 20260508114550 | 7 | 0 | 0.0 | 0.0 | 0.00 | 0.81 | 0.00 | 95 | 1017.5 |
| 20260508114049 | 7 | 0 | 0.0 | 0.0 | 0.00 | 0.81 | 0.00 | 95 | 1017.4 |
| 20260508113547 | 7 | 0 | 0.0 | 0.0 | 0.00 | 0.81 | 0.00 | 95 | 1017.4 |
| 20260508113107 | 7 | 0 | 0.0 | 0.0 | 0.00 | 0.81 | 0.00 | 94 | 1017.3 |
| 20260508112545 | 7 | 0 | 0.0 | 0.0 | 0.00 | 0.81 | 0.00 | 94 | 1017.2 |
| 20260508112048 | 7 | 0 | 0.0 | 0.0 | 0.00 | 0.81 | 0.00 | 94 | 1017.2 |
| 20260508111556 | 7 | 0 | 0.0 | 0.0 | 0.00 | 0.81 | 0.00 | 94 | 1017.0 |
| 20260508111046 | 7 | 0 | 0.0 | 0.0 | 0.00 | 0.81 | 0.00 | 94 | 1016.9 |
| 20260508110550 | 7 | 0 | 0.0 | 0.0 | 0.00 | 0.81 | 0.00 | 94 | 1016.9 |
| 20260508110052 | 8 | 0 | 0.0 | 0.0 | 0.00 | 0.81 | 0.00 | 94 | 1016.7 |
| 20260508105549 | 8 | 0 | 0.0 | 0.0 | 0.00 | 0.81 | 0.00 | 94 | 1016.7 |
| 20260508105049 | 8 | 0 | 0.0 | 0.0 | 0.00 | 0.81 | 0.00 | 94 | 1016.5 |
| 20260508104557 | 8 | 0 | 0.0 | 0.0 | 0.00 | 0.81 | 0.00 | 94 | 1016.4 |
| 20260508104049 | 8 | 0 | 0.0 | 0.0 | 0.00 | 0.81 | 0.00 | 94 | 1016.4 |
| 20260508103549 | 8 | 0 | 0.0 | 0.0 | 0.00 | 0.81 | 0.00 | 94 | 1016.2 |
| 20260508103052 | 8 | 0 | 0.0 | 0.0 | 0.00 | 0.81 | 0.00 | 94 | 1016.2 |
| 20260508102545 | 8 | 0 | 0.0 | 0.0 | 0.00 | 0.81 | 0.00 | 94 | 1016.2 |
| 20260508102050 | 8 | 0 | 0.0 | 0.0 | 0.00 | 0.81 | 0.00 | 94 | 1016.2 |
| 20260508101556 | 8 | 0 | 0.0 | 0.0 | 0.00 | 0.81 | 0.00 | 94 | 1016.2 |
| 20260508101050 | 8 | 0 | 0.0 | 0.0 | 0.00 | 0.81 | 0.00 | 94 | 1016.1 |
| 20260508100548 | 8 | 0 | 0.0 | 0.0 | 0.00 | 0.81 | 0.00 | 94 | 1016.0 |
| 20260508100055 | 8 | 0 | 0.0 | 0.0 | 0.00 | 0.81 | 0.00 | 94 | 1016.0 |
| 20260508095549 | 8 | 0 | 0.0 | 0.0 | 0.00 | 0.86 | 0.00 | 94 | 1015.8 |
| 20260508095046 | 8 | 0 | 0.0 | 0.0 | 0.00 | 0.86 | 0.00 | 95 | 1015.7 |
| 20260508094605 | 8 | 0 | 0.0 | 0.0 | 0.00 | 0.86 | 0.00 | 95 | 1015.6 |
| 20260508094049 | 8 | 0 | 0.0 | 0.0 | 0.00 | 0.86 | 0.00 | 95 | 1015.6 |
| 20260508093547 | 8 | 0 | 0.0 | 0.0 | 0.00 | 0.86 | 0.00 | 94 | 1015.5 |
| 20260508093057 | 8 | 0 | 0.0 | 0.0 | 0.00 | 0.86 | 0.00 | 94 | 1015.4 |
| 20260508092549 | 8 | 0 | 0.0 | 0.0 | 0.00 | 0.86 | 0.00 | 94 | 1015.4 |
| 20260508092048 | 8 | 0 | 0.0 | 0.0 | 0.00 | 0.86 | 0.00 | 94 | 1015.3 |
| 20260508091557 | 8 | 0 | 0.0 | 0.0 | 0.00 | 0.86 | 0.00 | 95 | 1015.5 |
| 20260508091049 | 8 | 0 | 0.0 | 0.0 | 0.00 | 0.86 | 0.00 | 95 | 1015.5 |
| 20260508090550 | 9 | 0 | 0.0 | 0.0 | 0.00 | 0.86 | 0.00 | 95 | 1015.5 |
| 20260508090055 | 9 | 0 | 0.0 | 0.0 | 0.00 | 0.86 | 0.00 | 95 | 1015.5 |
| 20260508085545 | 9 | 0 | 0.0 | 0.0 | 0.00 | 0.94 | 0.00 | 94 | 1015.4 |
| 20260508085048 | 9 | 0 | 0.0 | 0.0 | 0.00 | 0.94 | 0.00 | 94 | 1015.3 |
| 20260508084600 | 9 | 0 | 0.0 | 0.0 | 0.00 | 0.94 | 0.00 | 94 | 1015.5 |
| 20260508084046 | 9 | 0 | 0.0 | 0.0 | 0.00 | 0.94 | 0.00 | 94 | 1015.4 |
| 20260508083545 | 9 | 0 | 0.0 | 0.0 | 0.00 | 0.94 | 0.00 | 95 | 1015.2 |
| 20260508083100 | 9 | 0 | 0.0 | 0.0 | 0.00 | 0.94 | 0.00 | 95 | 1015.2 |
| 20260508082545 | 9 | 0 | 0.0 | 0.0 | 0.00 | 0.94 | 0.00 | 95 | 1015.2 |
| 20260508082049 | 9 | 0 | 0.0 | 0.0 | 0.00 | 0.94 | 0.00 | 95 | 1015.1 |
| 20260508081622 | 9 | 0 | 0.0 | 0.0 | 0.00 | 0.94 | 0.00 | 95 | 1014.8 |
| 20260508081049 | 9 | 0 | 0.0 | 3.2 | 0.00 | 0.94 | 0.00 | 95 | 1014.8 |
| 20260508080552 | 9 | 0 | 0.0 | 3.2 | 0.00 | 0.94 | 0.00 | 95 | 1014.8 |
| 20260508080058 | 9 | 102 | 1.6 | 3.2 | 0.00 | 0.94 | 0.00 | 95 | 1014.7 |
| 20260508075549 | 10 | 102 | 0.0 | 3.2 | 0.00 | 1.04 | 0.00 | 95 | 1014.8 |
| 20260508075048 | 10 | 102 | 0.0 | 4.8 | 0.00 | 1.04 | 0.00 | 95 | 1014.8 |
| 20260508074554 | 10 | 0 | 0.0 | 4.8 | 0.00 | 1.04 | 0.00 | 95 | 1014.7 |
| 20260508074046 | 10 | 0 | 0.0 | 3.2 | 0.00 | 1.04 | 0.00 | 95 | 1014.6 |
| 20260508073546 | 10 | 0 | 0.0 | 3.2 | 0.00 | 1.04 | 0.00 | 95 | 1014.6 |
| 20260508073057 | 10 | 0 | 0.0 | 3.2 | 0.00 | 1.04 | 0.00 | 95 | 1014.6 |
| 20260508072548 | 10 | 105 | 0.0 | 3.2 | 0.00 | 1.04 | 0.00 | 95 | 1014.6 |
| 20260508072116 | 10 | 104 | 0.0 | 3.2 | 0.00 | 1.04 | 0.00 | 95 | 1014.6 |
| 20260508071550 | 10 | 0 | 0.0 | 3.2 | 0.00 | 1.04 | 0.00 | 95 | 1014.4 |
| 20260508071048 | 10 | 104 | 0.0 | 3.2 | 0.00 | 1.04 | 0.00 | 95 | 1014.5 |
| 20260508070545 | 10 | 0 | 0.0 | 3.2 | 0.00 | 1.04 | 0.00 | 95 | 1014.5 |
| 20260508065548 | 10 | 0 | 0.0 | 4.8 | 0.00 | 1.22 | 0.00 | 95 | 1014.5 |
| 20260508065049 | 10 | 109 | 0.0 | 4.8 | 0.00 | 1.22 | 0.00 | 95 | 1014.4 |
| 20260508064551 | 10 | 0 | 0.0 | 3.2 | 0.00 | 1.22 | 0.00 | 95 | 1014.5 |
| 20260508064050 | 10 | 0 | 0.0 | 3.2 | 0.00 | 1.22 | 0.00 | 95 | 1014.4 |
| 20260508063545 | 10 | 109 | 0.0 | 3.2 | 0.00 | 1.22 | 0.00 | 95 | 1014.3 |
| 20260508063056 | 10 | 109 | 0.0 | 4.8 | 0.00 | 1.22 | 0.00 | 95 | 1014.5 |
| 20260508062549 | 10 | 0 | 0.0 | 4.8 | 0.00 | 1.22 | 0.00 | 95 | 1014.5 |
| 20260508062048 | 10 | 109 | 0.0 | 4.8 | 0.00 | 1.22 | 0.00 | 94 | 1014.5 |
| 20260508061556 | 10 | 0 | 0.0 | 0.0 | 0.00 | 1.22 | 0.00 | 95 | 1014.5 |
| 20260508061049 | 10 | 0 | 0.0 | 0.0 | 0.00 | 1.22 | 0.00 | 95 | 1014.5 |
| 20260508060545 | 10 | 0 | 0.0 | 0.0 | 0.00 | 1.22 | 0.00 | 95 | 1014.4 |
| 20260508060057 | 10 | 0 | 0.0 | 0.0 | 0.00 | 1.22 | 0.00 | 94 | 1014.5 |
| 20260508055549 | 10 | 0 | 0.0 | 0.0 | 0.00 | 1.22 | 0.00 | 95 | 1014.5 |
| 20260508055045 | 10 | 0 | 0.0 | 3.2 | 0.00 | 1.22 | 0.00 | 95 | 1014.4 |
| 20260508054558 | 10 | 0 | 0.0 | 3.2 | 0.00 | 1.22 | 0.00 | 95 | 1014.4 |
| 20260508054049 | 10 | 74 | 0.0 | 3.2 | 0.00 | 1.22 | 0.00 | 95 | 1014.4 |
| 20260508053546 | 11 | 0 | 0.0 | 3.2 | 0.00 | 1.22 | 0.00 | 95 | 1014.4 |
| 20260508053056 | 11 | 65 | 0.0 | 0.0 | 0.00 | 1.22 | 0.00 | 95 | 1014.4 |
| 20260508052545 | 11 | 0 | 0.0 | 0.0 | 0.00 | 1.22 | 0.00 | 95 | 1014.3 |
| 20260508052048 | 11 | 0 | 0.0 | 0.0 | 0.00 | 1.22 | 0.00 | 95 | 1014.4 |
| 20260508051552 | 11 | 0 | 0.0 | 0.0 | 0.00 | 1.22 | 0.00 | 95 | 1014.4 |
| 20260508051054 | 11 | 0 | 0.0 | 0.0 | 0.00 | 1.22 | 0.00 | 95 | 1014.3 |
| 20260508050551 | 11 | 0 | 0.0 | 0.0 | 0.00 | 1.22 | 0.00 | 95 | 1014.4 |
| 20260508050054 | 10 | 0 | 0.0 | 0.0 | 0.00 | 1.22 | 0.00 | 95 | 1014.3 |
| 20260508045545 | 11 | 0 | 0.0 | 0.0 | 0.00 | 1.42 | 0.00 | 94 | 1014.3 |
| 20260508045048 | 11 | 0 | 0.0 | 0.0 | 0.00 | 1.42 | 0.00 | 94 | 1014.2 |
| 20260508044603 | 11 | 0 | 0.0 | 0.0 | 0.00 | 1.42 | 0.00 | 94 | 1014.2 |
| 20260508044048 | 11 | 0 | 0.0 | 0.0 | 0.00 | 1.42 | 0.00 | 94 | 1014.2 |
| 20260508043548 | 11 | 0 | 0.0 | 0.0 | 0.00 | 1.42 | 0.00 | 94 | 1014.1 |
| 20260508043053 | 11 | 0 | 0.0 | 0.0 | 0.00 | 1.42 | 0.00 | 94 | 1013.9 |
| 20260508042545 | 11 | 0 | 0.0 | 0.0 | 0.00 | 1.42 | 0.00 | 94 | 1014.0 |
| 20260508042048 | 11 | 0 | 0.0 | 0.0 | 0.00 | 1.42 | 0.00 | 94 | 1013.9 |
| 20260508041548 | 11 | 0 | 0.0 | 0.0 | 0.00 | 1.42 | 0.00 | 94 | 1013.9 |
| 20260508041048 | 11 | 0 | 0.0 | 0.0 | 0.00 | 1.42 | 0.00 | 94 | 1013.9 |
| 20260508040547 | 11 | 0 | 0.0 | 0.0 | 0.00 | 1.42 | 0.00 | 94 | 1013.8 |
| 20260508040058 | 11 | 0 | 0.0 | 0.0 | 0.00 | 1.42 | 0.00 | 94 | 1013.8 |
| 20260508035545 | 11 | 0 | 0.0 | 0.0 | 0.00 | 1.85 | 1.42 | 94 | 1013.8 |
| 20260508035048 | 11 | 0 | 0.0 | 0.0 | 0.00 | 1.85 | 1.42 | 94 | 1013.9 |
| 20260508034555 | 11 | 0 | 0.0 | 0.0 | 0.00 | 1.85 | 1.42 | 94 | 1013.8 |
| 20260508034046 | 11 | 0 | 0.0 | 0.0 | 0.00 | 1.85 | 1.42 | 94 | 1013.8 |
| 20260508033545 | 11 | 0 | 0.0 | 0.0 | 0.00 | 1.85 | 1.42 | 94 | 1013.9 |
| 20260508033052 | 11 | 0 | 0.0 | 0.0 | 0.00 | 1.85 | 1.42 | 94 | 1013.9 |
| 20260508032546 | 11 | 0 | 0.0 | 0.0 | 0.00 | 1.85 | 1.42 | 94 | 1013.8 |